Time,TemperatureF,DewpointF,PressureIn,WindDirection,WindDirectionDegrees,WindSpeedMPH,WindSpeedGustMPH,Humidity,HourlyPrecipIn,Conditions,Clouds,dailyrainin,SoftwareType,DateUTC
2013-04-03 00:00:00,48.0,45.5,30.18,East,99,0.0,0.0,91,0.00,,OVC027,0.00,VWS V14.01,2013-04-03 07:00:00,
2013-04-03 00:05:00,48.0,45.5,30.18,East,99,0.0,0.0,91,0.00,,OVC027,0.00,VWS V14.01,2013-04-03 07:05:00,
2013-04-03 00:10:00,48.1,45.6,30.18,East,99,0.0,0.0,91,0.00,,OVC027,0.00,VWS V14.01,2013-04-03 07:10:00,
2013-04-03 00:15:00,48.2,45.7,30.18,East,99,0.0,0.0,91,0.00,,OVC027,0.00,VWS V14.01,2013-04-03 07:15:00,
2013-04-03 00:20:00,48.3,45.8,30.18,East,99,0.0,0.0,91,0.00,,OVC027,0.00,VWS V14.01,2013-04-03 07:20:00,
2013-04-03 00:25:00,48.4,45.9,30.18,East,99,0.0,0.0,91,0.00,,OVC027,0.00,VWS V14.01,2013-04-03 07:25:00,
2013-04-03 00:30:00,48.4,45.9,30.18,East,99,0.0,0.0,91,0.00,,OVC027,0.00,VWS V14.01,2013-04-03 07:30:00,
2013-04-03 00:35:00,48.5,46.0,30.18,East,101,1.0,0.0,91,0.00,,OVC027,0.00,VWS V14.01,2013-04-03 07:35:00,
2013-04-03 00:40:00,48.6,46.1,30.18,ESE,103,2.0,0.0,91,0.00,,OVC027,0.00,VWS V14.01,2013-04-03 07:40:00,
2013-04-03 00:45:00,48.7,46.2,30.18,ESE,102,0.0,0.0,91,0.00,,OVC025,0.00,VWS V14.01,2013-04-03 07:45:00,
2013-04-03 00:50:00,48.8,46.3,30.19,ESE,103,0.0,0.0,91,0.00,,OVC025,0.00,VWS V14.01,2013-04-03 07:50:00,
2013-04-03 00:55:00,48.9,46.4,30.19,East,98,1.0,0.0,91,0.00,,OVC025,0.00,VWS V14.01,2013-04-03 07:55:00,
2013-04-03 01:00:00,48.9,46.4,30.19,ESE,106,2.0,0.0,91,0.00,,OVC025,0.00,VWS V14.01,2013-04-03 08:00:00,
2013-04-03 01:05:00,49.0,46.5,30.18,ESE,104,2.0,0.0,91,0.00,,OVC022,0.00,VWS V14.01,2013-04-03 08:05:00,
2013-04-03 01:10:00,49.1,46.3,30.18,ESE,117,1.0,0.0,90,0.00,,OVC022,0.00,VWS V14.01,2013-04-03 08:10:00,
2013-04-03 01:15:00,49.1,46.3,30.18,East,94,1.0,0.0,90,0.00,,OVC022,0.00,VWS V14.01,2013-04-03 08:15:00,
2013-04-03 01:20:00,49.1,46.3,30.18,East,91,1.0,0.0,90,0.00,,OVC022,0.00,VWS V14.01,2013-04-03 08:20:00,
2013-04-03 01:25:00,49.2,46.4,30.18,East,99,0.0,0.0,90,0.00,,OVC018,0.00,VWS V14.01,2013-04-03 08:25:00,
2013-04-03 01:30:00,49.2,46.4,30.18,ENE,76,2.0,0.0,90,0.00,,OVC018,0.00,VWS V14.01,2013-04-03 08:30:00,
2013-04-03 01:35:00,49.2,46.4,30.19,East,91,0.0,0.0,90,0.00,,OVC018,0.00,VWS V14.01,2013-04-03 08:35:00,
2013-04-03 01:40:00,49.2,46.4,30.19,East,91,0.0,0.0,90,0.00,,OVC018,0.00,VWS V14.01,2013-04-03 08:40:00,
2013-04-03 01:45:00,49.2,46.4,30.18,East,93,0.0,0.0,90,0.00,,OVC018,0.00,VWS V14.01,2013-04-03 08:45:00,
2013-04-03 01:50:00,49.2,46.4,30.18,East,93,0.0,0.0,90,0.00,,OVC018,0.00,VWS V14.01,2013-04-03 08:50:00,
2013-04-03 01:55:00,49.2,46.4,30.19,East,92,0.0,0.0,90,0.00,,OVC018,0.00,VWS V14.01,2013-04-03 08:55:00,
2013-04-03 02:00:00,49.1,46.3,30.19,East,93,0.0,0.0,90,0.00,,OVC018,0.00,VWS V14.01,2013-04-03 09:00:00,
2013-04-03 02:05:00,49.1,46.3,30.18,East,93,0.0,0.0,90,0.00,,OVC016,0.00,VWS V14.01,2013-04-03 09:05:00,
2013-04-03 02:10:00,49.1,46.3,30.18,East,92,0.0,0.0,90,0.00,,OVC016,0.00,VWS V14.01,2013-04-03 09:10:00,
2013-04-03 02:15:00,49.1,46.3,30.18,East,92,0.0,0.0,90,0.00,,OVC016,0.00,VWS V14.01,2013-04-03 09:15:00,
2013-04-03 02:20:00,49.1,46.3,30.18,East,93,0.0,0.0,90,0.00,,OVC016,0.00,VWS V14.01,2013-04-03 09:20:00,
2013-04-03 02:25:00,49.1,46.3,30.18,East,96,0.0,0.0,90,0.00,,OVC016,0.00,VWS V14.01,2013-04-03 09:25:00,
2013-04-03 02:30:00,49.1,46.3,30.18,East,95,0.0,0.0,90,0.00,,OVC016,0.00,VWS V14.01,2013-04-03 09:30:00,
2013-04-03 02:35:00,49.1,46.3,30.18,East,97,0.0,0.0,90,0.00,,OVC016,0.00,VWS V14.01,2013-04-03 09:35:00,
2013-04-03 02:40:00,49.1,46.3,30.17,East,97,0.0,0.0,90,0.00,,OVC016,0.00,VWS V14.01,2013-04-03 09:40:00,
2013-04-03 02:45:00,49.1,46.3,30.17,East,96,0.0,0.0,90,0.00,,OVC016,0.00,VWS V14.01,2013-04-03 09:45:00,
2013-04-03 02:50:00,49.0,46.2,30.17,East,97,0.0,0.0,90,0.00,,OVC016,0.00,VWS V14.01,2013-04-03 09:50:00,
2013-04-03 02:55:00,49.1,46.3,30.17,East,97,0.0,0.0,90,0.00,,OVC016,0.00,VWS V14.01,2013-04-03 09:55:00,
2013-04-03 03:00:00,49.0,46.2,30.17,East,97,0.0,0.0,90,0.00,,OVC016,0.00,VWS V14.01,2013-04-03 10:00:00,
2013-04-03 03:05:00,49.0,46.2,30.17,East,89,0.0,0.0,90,0.00,,OVC016,0.00,VWS V14.01,2013-04-03 10:05:00,
2013-04-03 03:10:00,48.9,46.1,30.17,East,89,0.0,0.0,90,0.00,,OVC016,0.00,VWS V14.01,2013-04-03 10:10:00,
2013-04-03 03:15:00,48.9,46.1,30.17,East,89,0.0,0.0,90,0.00,,OVC016,0.00,VWS V14.01,2013-04-03 10:15:00,
2013-04-03 03:20:00,48.8,46.0,30.17,East,89,0.0,0.0,90,0.00,,OVC016,0.00,VWS V14.01,2013-04-03 10:20:00,
2013-04-03 03:25:00,48.8,46.0,30.17,East,88,0.0,0.0,90,0.00,,OVC014,0.00,VWS V14.01,2013-04-03 10:25:00,
2013-04-03 03:30:00,48.7,45.9,30.17,East,89,0.0,0.0,90,0.00,,OVC014,0.00,VWS V14.01,2013-04-03 10:30:00,
2013-04-03 03:35:00,48.7,45.9,30.17,East,89,0.0,0.0,90,0.00,,OVC014,0.00,VWS V14.01,2013-04-03 10:35:00,
2013-04-03 03:40:00,48.7,45.9,30.17,East,89,0.0,0.0,90,0.00,,OVC014,0.00,VWS V14.01,2013-04-03 10:40:00,
2013-04-03 03:45:00,48.6,45.8,30.17,East,90,0.0,0.0,90,0.00,,OVC012,0.00,VWS V14.01,2013-04-03 10:45:00,
2013-04-03 03:50:00,48.6,45.8,30.17,East,89,0.0,0.0,90,0.00,,OVC012,0.00,VWS V14.01,2013-04-03 10:50:00,
2013-04-03 03:55:00,48.6,45.8,30.17,East,89,0.0,0.0,90,0.00,,OVC012,0.00,VWS V14.01,2013-04-03 10:55:00,
2013-04-03 04:00:00,48.6,45.8,30.17,East,90,0.0,0.0,90,0.00,,OVC012,0.00,VWS V14.01,2013-04-03 11:00:00,
2013-04-03 04:05:00,48.7,45.9,30.17,East,90,0.0,0.0,90,0.00,,OVC012,0.00,VWS V14.01,2013-04-03 11:05:00,
2013-04-03 04:10:00,48.6,45.8,30.17,East,90,0.0,0.0,90,0.00,,OVC012,0.00,VWS V14.01,2013-04-03 11:10:00,
2013-04-03 04:15:00,48.6,45.8,30.16,East,89,0.0,0.0,90,0.00,,OVC012,0.00,VWS V14.01,2013-04-03 11:15:00,
2013-04-03 04:20:00,48.6,45.8,30.17,East,90,0.0,0.0,90,0.00,,OVC012,0.00,VWS V14.01,2013-04-03 11:20:00,
2013-04-03 04:25:00,48.7,45.9,30.16,East,89,0.0,0.0,90,0.00,,OVC017,0.00,VWS V14.01,2013-04-03 11:25:00,
2013-04-03 04:30:00,48.7,45.9,30.16,East,90,0.0,0.0,90,0.00,,OVC017,0.00,VWS V14.01,2013-04-03 11:30:00,
2013-04-03 04:35:00,48.7,45.9,30.17,East,90,0.0,0.0,90,0.00,,OVC017,0.00,VWS V14.01,2013-04-03 11:35:00,
2013-04-03 04:40:00,48.7,45.9,30.16,East,90,0.0,0.0,90,0.00,,OVC017,0.00,VWS V14.01,2013-04-03 11:40:00,
2013-04-03 04:45:00,48.7,45.9,30.16,East,90,0.0,0.0,90,0.00,,OVC015,0.00,VWS V14.01,2013-04-03 11:45:00,
2013-04-03 04:50:00,48.7,46.2,30.16,East,89,0.0,0.0,91,0.00,,OVC015,0.00,VWS V14.01,2013-04-03 11:50:00,
2013-04-03 04:55:00,48.8,46.0,30.16,East,89,0.0,0.0,90,0.00,,OVC015,0.00,VWS V14.01,2013-04-03 11:55:00,
2013-04-03 05:00:00,48.8,46.0,30.16,East,90,0.0,0.0,90,0.00,,OVC015,0.00,VWS V14.01,2013-04-03 12:00:00,
2013-04-03 05:05:00,48.8,46.0,30.16,East,90,0.0,0.0,90,0.00,,OVC017,0.00,VWS V14.01,2013-04-03 12:05:00,
2013-04-03 05:10:00,48.9,46.1,30.16,East,88,0.0,0.0,90,0.00,,OVC017,0.00,VWS V14.01,2013-04-03 12:10:00,
2013-04-03 05:15:00,48.9,46.1,30.16,East,89,0.0,0.0,90,0.00,,OVC017,0.00,VWS V14.01,2013-04-03 12:15:00,
2013-04-03 05:20:00,48.9,46.1,30.16,East,89,0.0,0.0,90,0.00,,OVC017,0.00,VWS V14.01,2013-04-03 12:20:00,
2013-04-03 05:25:00,48.9,46.1,30.16,East,89,0.0,0.0,90,0.00,,OVC015,0.00,VWS V14.01,2013-04-03 12:25:00,
2013-04-03 05:30:00,48.9,46.1,30.16,East,89,0.0,0.0,90,0.00,,OVC015,0.00,VWS V14.01,2013-04-03 12:30:00,
2013-04-03 05:35:00,48.9,46.1,30.16,East,89,0.0,0.0,90,0.00,,OVC015,0.00,VWS V14.01,2013-04-03 12:35:00,
2013-04-03 05:40:00,48.9,46.1,30.15,ESE,109,1.0,0.0,90,0.00,,OVC015,0.00,VWS V14.01,2013-04-03 12:40:00,
2013-04-03 05:45:00,49.0,46.2,30.15,ESE,109,0.0,0.0,90,0.00,,OVC015,0.00,VWS V14.01,2013-04-03 12:45:00,
2013-04-03 05:50:00,49.0,46.2,30.15,ESE,109,0.0,0.0,90,0.00,,OVC015,0.00,VWS V14.01,2013-04-03 12:50:00,
2013-04-03 05:55:00,49.0,46.2,30.14,ESE,109,0.0,0.0,90,0.00,,OVC015,0.00,VWS V14.01,2013-04-03 12:55:00,
2013-04-03 06:00:00,49.0,46.2,30.14,ESE,109,0.0,0.0,90,0.00,,OVC015,0.00,VWS V14.01,2013-04-03 13:00:00,
2013-04-03 06:05:00,49.0,45.9,30.15,SE,146,0.0,0.0,89,0.00,,OVC015,0.00,VWS V14.01,2013-04-03 13:05:00,
2013-04-03 06:10:00,49.1,46.0,30.15,SW,230,1.0,0.0,89,0.00,,OVC015,0.00,VWS V14.01,2013-04-03 13:10:00,
2013-04-03 06:15:00,49.1,46.0,30.14,SW,234,0.0,0.0,89,0.00,,OVC015,0.00,VWS V14.01,2013-04-03 13:15:00,
2013-04-03 06:20:00,49.1,45.7,30.14,SW,219,0.0,0.0,88,0.00,,OVC015,0.00,VWS V14.01,2013-04-03 13:20:00,
2013-04-03 06:25:00,49.1,45.7,30.14,SW,233,2.0,0.0,88,0.00,,OVC013,0.00,VWS V14.01,2013-04-03 13:25:00,
2013-04-03 06:30:00,49.1,45.7,30.14,SSW,200,3.0,0.0,88,0.00,,OVC013,0.00,VWS V14.01,2013-04-03 13:30:00,
2013-04-03 06:35:00,49.1,45.7,30.14,SSW,203,2.0,0.0,88,0.00,,OVC013,0.00,VWS V14.01,2013-04-03 13:35:00,
2013-04-03 06:40:00,49.2,45.8,30.14,SW,215,3.0,0.0,88,0.00,,OVC013,0.00,VWS V14.01,2013-04-03 13:40:00,
2013-04-03 06:45:00,49.2,45.8,30.14,South,191,1.0,0.0,88,0.00,,OVC013,0.00,VWS V14.01,2013-04-03 13:45:00,
2013-04-03 06:50:00,49.2,45.8,30.14,SW,222,3.0,0.0,88,0.00,,OVC013,0.00,VWS V14.01,2013-04-03 13:50:00,
2013-04-03 06:55:00,49.2,45.8,30.14,SW,217,2.0,0.0,88,0.00,,OVC013,0.00,VWS V14.01,2013-04-03 13:55:00,
2013-04-03 07:00:00,49.2,45.8,30.15,SSW,213,1.0,0.0,88,0.00,,OVC013,0.00,VWS V14.01,2013-04-03 14:00:00,
2013-04-03 07:05:00,49.2,45.8,30.14,South,188,1.0,0.0,88,0.00,,OVC013,0.00,VWS V14.01,2013-04-03 14:05:00,
2013-04-03 07:10:00,49.2,45.8,30.14,SSW,213,1.0,0.0,88,0.00,,OVC013,0.00,VWS V14.01,2013-04-03 14:10:00,
2013-04-03 07:15:00,49.2,45.8,30.15,SW,225,4.0,0.0,88,0.00,,OVC013,0.00,VWS V14.01,2013-04-03 14:15:00,
2013-04-03 07:20:00,49.2,45.8,30.15,SW,219,0.0,0.0,88,0.00,,OVC013,0.00,VWS V14.01,2013-04-03 14:20:00,
2013-04-03 07:25:00,49.2,45.8,30.14,SW,226,2.0,0.0,88,0.00,,OVC013,0.00,VWS V14.01,2013-04-03 14:25:00,
2013-04-03 07:30:00,49.2,45.8,30.14,South,191,1.0,0.0,88,0.00,,OVC013,0.00,VWS V14.01,2013-04-03 14:30:00,
2013-04-03 07:35:00,49.3,45.9,30.14,South,191,0.0,0.0,88,0.00,,OVC013,0.00,VWS V14.01,2013-04-03 14:35:00,
2013-04-03 07:40:00,49.3,45.9,30.14,South,183,4.0,0.0,88,0.00,,OVC013,0.00,VWS V14.01,2013-04-03 14:40:00,
2013-04-03 07:45:00,49.3,45.9,30.14,SSW,200,0.0,0.0,88,0.00,,OVC011,0.00,VWS V14.01,2013-04-03 14:45:00,
2013-04-03 07:50:00,49.4,46.0,30.14,South,186,1.0,0.0,88,0.00,,OVC011,0.00,VWS V14.01,2013-04-03 14:50:00,
2013-04-03 07:55:00,49.5,46.1,30.14,SW,227,0.0,0.0,88,0.00,,OVC011,0.00,VWS V14.01,2013-04-03 14:55:00,
2013-04-03 08:00:00,49.5,46.1,30.14,SSW,210,1.0,0.0,88,0.00,,OVC011,0.00,VWS V14.01,2013-04-03 15:00:00,
2013-04-03 08:05:00,49.5,46.1,30.14,SW,219,3.0,0.0,88,0.00,,OVC011,0.00,VWS V14.01,2013-04-03 15:05:00,
2013-04-03 08:10:00,49.5,46.1,30.14,SW,219,1.0,0.0,88,0.00,,OVC011,0.00,VWS V14.01,2013-04-03 15:10:00,
2013-04-03 08:15:00,49.5,46.1,30.14,WSW,246,1.0,0.0,88,0.00,,OVC011,0.00,VWS V14.01,2013-04-03 15:15:00,
2013-04-03 08:20:00,49.7,46.3,30.14,WSW,244,1.0,0.0,88,0.00,,OVC011,0.00,VWS V14.01,2013-04-03 15:20:00,
2013-04-03 08:25:00,49.7,46.3,30.14,SW,222,1.0,0.0,88,0.00,,OVC011,0.00,VWS V14.01,2013-04-03 15:25:00,
2013-04-03 08:30:00,49.8,46.4,30.13,SSW,204,1.0,0.0,88,0.00,,OVC011,0.00,VWS V14.01,2013-04-03 15:30:00,
2013-04-03 08:35:00,49.8,46.4,30.13,SW,217,3.0,0.0,88,0.00,,OVC011,0.00,VWS V14.01,2013-04-03 15:35:00,
2013-04-03 08:40:00,49.8,46.4,30.13,SW,221,6.0,0.0,88,0.00,,OVC011,0.00,VWS V14.01,2013-04-03 15:40:00,
2013-04-03 08:45:00,49.9,46.5,30.13,SW,217,2.0,0.0,88,0.00,,OVC011,0.00,VWS V14.01,2013-04-03 15:45:00,
2013-04-03 08:50:00,50.1,47.0,30.13,WSW,245,2.0,0.0,89,0.00,,OVC011,0.00,VWS V14.01,2013-04-03 15:50:00,
2013-04-03 08:55:00,50.2,46.8,30.12,SW,225,5.0,0.0,88,0.00,,OVC011,0.00,VWS V14.01,2013-04-03 15:55:00,
2013-04-03 09:00:00,50.1,46.7,30.12,SW,222,3.0,0.0,88,0.00,,OVC011,0.00,VWS V14.01,2013-04-03 16:00:00,
2013-04-03 09:05:00,50.2,46.8,30.12,SW,227,2.0,0.0,88,0.00,,OVC011,0.00,VWS V14.01,2013-04-03 16:05:00,
2013-04-03 09:10:00,50.4,47.0,30.12,South,186,1.0,0.0,88,0.00,,OVC011,0.00,VWS V14.01,2013-04-03 16:10:00,
2013-04-03 09:15:00,50.4,47.0,30.12,SSW,203,1.0,0.0,88,0.00,,OVC011,0.00,VWS V14.01,2013-04-03 16:15:00,
2013-04-03 09:20:00,50.4,47.0,30.12,SW,227,1.0,0.0,88,0.00,,OVC011,0.00,VWS V14.01,2013-04-03 16:20:00,
2013-04-03 09:25:00,50.4,47.0,30.12,SW,236,2.0,0.0,88,0.00,,OVC011,0.00,VWS V14.01,2013-04-03 16:25:00,
2013-04-03 09:30:00,50.4,47.0,30.12,WSW,238,0.0,0.0,88,0.00,,OVC011,0.00,VWS V14.01,2013-04-03 16:30:00,
2013-04-03 09:35:00,50.5,47.1,30.12,SSW,210,0.0,0.0,88,0.00,,OVC011,0.00,VWS V14.01,2013-04-03 16:35:00,
2013-04-03 09:40:00,50.7,47.3,30.12,SSW,204,0.0,0.0,88,0.00,,OVC011,0.00,VWS V14.01,2013-04-03 16:40:00,
2013-04-03 09:45:00,51.0,47.6,30.12,SSW,203,0.0,0.0,88,0.00,,OVC013,0.00,VWS V14.01,2013-04-03 16:45:00,
2013-04-03 09:50:00,51.3,47.6,30.13,SW,218,0.0,0.0,87,0.00,,OVC013,0.00,VWS V14.01,2013-04-03 16:50:00,
2013-04-03 09:55:00,51.7,48.3,30.13,SSW,198,0.0,0.0,88,0.00,,OVC013,0.00,VWS V14.01,2013-04-03 16:55:00,
2013-04-03 10:00:00,52.2,48.2,30.13,South,173,0.0,0.0,86,0.00,,OVC013,0.00,VWS V14.01,2013-04-03 17:00:00,
2013-04-03 10:05:00,52.4,48.0,30.13,South,176,1.0,0.0,85,0.00,,OVC013,0.00,VWS V14.01,2013-04-03 17:05:00,
2013-04-03 10:10:00,52.3,48.2,30.13,SW,231,3.0,0.0,86,0.00,,OVC013,0.00,VWS V14.01,2013-04-03 17:10:00,
2013-04-03 10:15:00,52.1,48.0,30.14,WSW,246,2.0,0.0,86,0.00,,OVC013,0.00,VWS V14.01,2013-04-03 17:15:00,
2013-04-03 10:20:00,52.6,48.5,30.14,South,182,0.0,0.0,86,0.00,,OVC013,0.00,VWS V14.01,2013-04-03 17:20:00,
2013-04-03 10:25:00,53.6,49.2,30.14,NNW,331,0.0,0.0,85,0.00,,OVC013,0.00,VWS V14.01,2013-04-03 17:25:00,
2013-04-03 10:30:00,54.4,49.3,30.13,WNW,298,0.0,0.0,83,0.00,,OVC013,0.00,VWS V14.01,2013-04-03 17:30:00,
2013-04-03 10:35:00,54.1,48.4,30.13,East,84,2.0,0.0,81,0.00,,OVC013,0.00,VWS V14.01,2013-04-03 17:35:00,
2013-04-03 10:40:00,54.2,48.8,30.12,NNW,331,1.0,0.0,82,0.00,,OVC013,0.00,VWS V14.01,2013-04-03 17:40:00,
2013-04-03 10:45:00,55.0,49.3,30.12,NNE,13,2.0,0.0,81,0.00,,BKN015,0.00,VWS V14.01,2013-04-03 17:45:00,
2013-04-03 10:50:00,55.5,49.8,30.12,SW,230,4.0,0.0,81,0.00,,BKN015,0.00,VWS V14.01,2013-04-03 17:50:00,
2013-04-03 10:55:00,55.7,49.6,30.12,NNE,30,0.0,0.0,80,0.00,,BKN015,0.00,VWS V14.01,2013-04-03 17:55:00,
2013-04-03 11:00:00,56.5,50.1,30.12,North,10,3.0,0.0,79,0.00,,BKN015,0.00,VWS V14.01,2013-04-03 18:00:00,
2013-04-03 11:05:00,56.7,49.9,30.12,ENE,69,0.0,0.0,78,0.00,,FEW015,0.00,VWS V14.01,2013-04-03 18:05:00,
2013-04-03 11:10:00,56.9,49.8,30.12,NNW,337,1.0,0.0,77,0.00,,FEW015,0.00,VWS V14.01,2013-04-03 18:10:00,
2013-04-03 11:15:00,57.3,49.8,30.12,East,90,1.0,0.0,76,0.00,,FEW015,0.00,VWS V14.01,2013-04-03 18:15:00,
2013-04-03 11:20:00,57.2,50.1,30.12,East,89,0.0,0.0,77,0.00,,FEW015,0.00,VWS V14.01,2013-04-03 18:20:00,
2013-04-03 11:25:00,57.2,50.1,30.12,West,268,1.0,0.0,77,0.00,,CLR,0.00,VWS V14.01,2013-04-03 18:25:00,
2013-04-03 11:30:00,57.0,49.9,30.11,NW,307,0.0,0.0,77,0.00,,CLR,0.00,VWS V14.01,2013-04-03 18:30:00,
2013-04-03 11:35:00,57.5,50.0,30.11,SW,223,0.0,0.0,76,0.00,,CLR,0.00,VWS V14.01,2013-04-03 18:35:00,
2013-04-03 11:40:00,58.3,50.8,30.11,NW,321,1.0,0.0,76,0.00,,CLR,0.00,VWS V14.01,2013-04-03 18:40:00,
2013-04-03 11:45:00,58.1,50.2,30.11,SE,124,2.0,0.0,75,0.00,,CLR,0.00,VWS V14.01,2013-04-03 18:45:00,
2013-04-03 11:50:00,57.6,50.1,30.11,ESE,109,0.0,0.0,76,0.00,,CLR,0.00,VWS V14.01,2013-04-03 18:50:00,
2013-04-03 11:55:00,58.6,50.7,30.11,NW,311,1.0,0.0,75,0.00,,CLR,0.00,VWS V14.01,2013-04-03 18:55:00,
2013-04-03 12:00:00,59.2,50.6,30.11,NE,40,1.0,0.0,73,0.00,,CLR,0.00,VWS V14.01,2013-04-03 19:00:00,
2013-04-03 12:05:00,59.4,50.4,30.11,ESE,121,3.0,0.0,72,0.00,,CLR,0.00,VWS V14.01,2013-04-03 19:05:00,
2013-04-03 12:10:00,59.3,51.0,30.11,ENE,78,1.0,0.0,74,0.00,,CLR,0.00,VWS V14.01,2013-04-03 19:10:00,
2013-04-03 12:15:00,59.8,51.1,30.11,ESE,111,1.0,0.0,73,0.00,,CLR,0.00,VWS V14.01,2013-04-03 19:15:00,
2013-04-03 12:20:00,59.8,51.1,30.11,ENE,63,1.0,0.0,73,0.00,,CLR,0.00,VWS V14.01,2013-04-03 19:20:00,
2013-04-03 12:25:00,59.4,51.1,30.10,ENE,60,2.0,0.0,74,0.00,,CLR,0.00,VWS V14.01,2013-04-03 19:25:00,
2013-04-03 12:30:00,59.6,51.0,30.10,WNW,287,0.0,0.0,73,0.00,,CLR,0.00,VWS V14.01,2013-04-03 19:30:00,
2013-04-03 12:35:00,60.3,51.6,30.10,WNW,288,0.0,0.0,73,0.00,,CLR,0.00,VWS V14.01,2013-04-03 19:35:00,
2013-04-03 12:40:00,61.1,51.6,30.10,WNW,300,0.0,0.0,71,0.00,,CLR,0.00,VWS V14.01,2013-04-03 19:40:00,
2013-04-03 12:45:00,61.7,52.6,30.10,SSE,157,0.0,0.0,72,0.00,,CLR,0.00,VWS V14.01,2013-04-03 19:45:00,
2013-04-03 12:50:00,61.0,51.5,30.10,SSE,160,0.0,0.0,71,0.00,,CLR,0.00,VWS V14.01,2013-04-03 19:50:00,
2013-04-03 12:55:00,60.5,52.2,30.10,SW,219,1.0,0.0,74,0.00,,CLR,0.00,VWS V14.01,2013-04-03 19:55:00,
2013-04-03 13:00:00,60.5,51.4,30.10,SSE,153,1.0,0.0,72,0.00,,CLR,0.00,VWS V14.01,2013-04-03 20:00:00,
2013-04-03 13:05:00,60.4,51.7,30.10,SSW,210,0.0,0.0,73,0.00,,CLR,0.00,VWS V14.01,2013-04-03 20:05:00,
2013-04-03 13:10:00,60.8,51.7,30.10,SSW,207,3.0,0.0,72,0.00,,CLR,0.00,VWS V14.01,2013-04-03 20:10:00,
2013-04-03 13:15:00,60.7,51.6,30.09,SSW,207,0.0,0.0,72,0.00,,CLR,0.00,VWS V14.01,2013-04-03 20:15:00,
2013-04-03 13:20:00,60.6,52.3,30.09,SSE,157,0.0,0.0,74,0.00,,CLR,0.00,VWS V14.01,2013-04-03 20:20:00,
2013-04-03 13:25:00,61.0,51.9,30.09,SW,230,1.0,0.0,72,0.00,,CLR,0.00,VWS V14.01,2013-04-03 20:25:00,
2013-04-03 13:30:00,61.5,51.6,30.09,NW,311,0.0,0.0,70,0.00,,CLR,0.00,VWS V14.01,2013-04-03 20:30:00,
2013-04-03 13:35:00,62.1,52.2,30.08,NNW,328,0.0,0.0,70,0.00,,CLR,0.00,VWS V14.01,2013-04-03 20:35:00,
2013-04-03 13:40:00,62.6,52.3,30.08,SSW,210,2.0,0.0,69,0.00,,CLR,0.00,VWS V14.01,2013-04-03 20:40:00,
2013-04-03 13:45:00,62.7,52.0,30.08,NNW,327,1.0,0.0,68,0.00,,CLR,0.00,VWS V14.01,2013-04-03 20:45:00,
2013-04-03 13:50:00,63.1,52.0,30.08,East,82,0.0,0.0,67,0.00,,CLR,0.00,VWS V14.01,2013-04-03 20:50:00,
2013-04-03 13:55:00,63.2,52.1,30.08,WSW,250,0.0,0.0,67,0.00,,CLR,0.00,VWS V14.01,2013-04-03 20:55:00,
2013-04-03 14:00:00,63.3,52.2,30.08,SW,217,1.0,0.0,67,0.00,,CLR,0.00,VWS V14.01,2013-04-03 21:00:00,
2013-04-03 14:05:00,63.5,52.8,30.08,SSW,210,3.0,0.0,68,0.00,,CLR,0.00,VWS V14.01,2013-04-03 21:05:00,
2013-04-03 14:10:00,63.8,52.7,30.08,South,191,3.0,0.0,67,0.00,,CLR,0.00,VWS V14.01,2013-04-03 21:10:00,
2013-04-03 14:15:00,63.5,52.4,30.07,ESE,113,0.0,0.0,67,0.00,,CLR,0.00,VWS V14.01,2013-04-03 21:15:00,
2013-04-03 14:20:00,63.9,52.3,30.07,East,84,0.0,0.0,66,0.00,,CLR,0.00,VWS V14.01,2013-04-03 21:20:00,
2013-04-03 14:25:00,64.0,52.4,30.07,WSW,241,4.0,0.0,66,0.00,,CLR,0.00,VWS V14.01,2013-04-03 21:25:00,
2013-04-03 14:30:00,63.5,51.5,30.07,ESE,123,1.0,0.0,65,0.00,,CLR,0.00,VWS V14.01,2013-04-03 21:30:00,
2013-04-03 14:35:00,63.6,51.6,30.07,SSW,195,0.0,0.0,65,0.00,,CLR,0.00,VWS V14.01,2013-04-03 21:35:00,
2013-04-03 14:40:00,64.0,52.0,30.07,East,84,2.0,0.0,65,0.00,,CLR,0.00,VWS V14.01,2013-04-03 21:40:00,
2013-04-03 14:45:00,64.3,52.3,30.06,ESE,122,1.0,0.0,65,0.00,,CLR,0.00,VWS V14.01,2013-04-03 21:45:00,
2013-04-03 14:50:00,64.6,52.2,30.06,East,89,0.0,0.0,64,0.00,,CLR,0.00,VWS V14.01,2013-04-03 21:50:00,
2013-04-03 14:55:00,64.5,52.1,30.06,East,90,2.0,0.0,64,0.00,,CLR,0.00,VWS V14.01,2013-04-03 21:55:00,
2013-04-03 15:00:00,64.3,52.3,30.06,East,99,1.0,0.0,65,0.00,,CLR,0.00,VWS V14.01,2013-04-03 22:00:00,
2013-04-03 15:05:00,64.1,52.5,30.06,ESE,103,1.0,0.0,66,0.00,,CLR,0.00,VWS V14.01,2013-04-03 22:05:00,
2013-04-03 15:10:00,64.1,52.1,30.06,ESE,103,0.0,0.0,65,0.00,,CLR,0.00,VWS V14.01,2013-04-03 22:10:00,
2013-04-03 15:15:00,64.2,52.2,30.06,ESE,104,1.0,0.0,65,0.00,,CLR,0.00,VWS V14.01,2013-04-03 22:15:00,
2013-04-03 15:20:00,64.0,52.0,30.06,ESE,104,0.0,0.0,65,0.00,,CLR,0.00,VWS V14.01,2013-04-03 22:20:00,
2013-04-03 15:25:00,64.1,52.1,30.05,ESE,104,0.0,0.0,65,0.00,,CLR,0.00,VWS V14.01,2013-04-03 22:25:00,
2013-04-03 15:30:00,64.1,52.9,30.05,ESE,103,1.0,0.0,67,0.00,,CLR,0.00,VWS V14.01,2013-04-03 22:30:00,
2013-04-03 15:35:00,64.1,52.1,30.05,ESE,104,0.0,0.0,65,0.00,,CLR,0.00,VWS V14.01,2013-04-03 22:35:00,
2013-04-03 15:40:00,64.3,51.9,30.04,ESE,113,0.0,0.0,64,0.00,,CLR,0.00,VWS V14.01,2013-04-03 22:40:00,
2013-04-03 15:45:00,64.6,52.2,30.04,ESE,114,1.0,0.0,64,0.00,,CLR,0.00,VWS V14.01,2013-04-03 22:45:00,
2013-04-03 15:50:00,64.7,51.8,30.04,ESE,114,0.0,0.0,63,0.00,,CLR,0.00,VWS V14.01,2013-04-03 22:50:00,
2013-04-03 15:55:00,64.9,52.9,30.04,ESE,115,0.0,0.0,65,0.00,,CLR,0.00,VWS V14.01,2013-04-03 22:55:00,
2013-04-03 16:00:00,64.9,52.5,30.03,ESE,115,0.0,0.0,64,0.00,,CLR,0.00,VWS V14.01,2013-04-03 23:00:00,
2013-04-03 16:05:00,65.3,53.2,30.03,ESE,114,0.0,0.0,65,0.00,,CLR,0.00,VWS V14.01,2013-04-03 23:05:00,
2013-04-03 16:10:00,65.3,52.4,30.03,SSW,192,1.0,0.0,63,0.00,,CLR,0.00,VWS V14.01,2013-04-03 23:10:00,
2013-04-03 16:15:00,65.2,53.2,30.03,SE,141,1.0,0.0,65,0.00,,CLR,0.00,VWS V14.01,2013-04-03 23:15:00,
2013-04-03 16:20:00,65.0,51.7,30.03,SE,133,0.0,0.0,62,0.00,,CLR,0.00,VWS V14.01,2013-04-03 23:20:00,
2013-04-03 16:25:00,65.1,51.8,30.02,SE,134,0.0,0.0,62,0.00,,CLR,0.00,VWS V14.01,2013-04-03 23:25:00,
2013-04-03 16:30:00,65.3,51.5,30.02,ESE,123,0.0,0.0,61,0.00,,CLR,0.00,VWS V14.01,2013-04-03 23:30:00,
2013-04-03 16:35:00,65.2,51.4,30.02,SE,124,0.0,0.0,61,0.00,,CLR,0.00,VWS V14.01,2013-04-03 23:35:00,
2013-04-03 16:40:00,65.4,51.6,30.02,ESE,123,0.0,0.0,61,0.00,,CLR,0.00,VWS V14.01,2013-04-03 23:40:00,
2013-04-03 16:45:00,65.5,51.3,30.01,SE,130,0.0,0.0,60,0.00,,CLR,0.00,VWS V14.01,2013-04-03 23:45:00,
2013-04-03 16:50:00,65.5,51.7,30.01,SE,130,0.0,0.0,61,0.00,,CLR,0.00,VWS V14.01,2013-04-03 23:50:00,
2013-04-03 16:55:00,65.7,51.9,30.01,SE,131,0.0,0.0,61,0.00,,CLR,0.00,VWS V14.01,2013-04-03 23:55:00,
2013-04-03 17:00:00,65.6,51.8,30.00,SE,136,0.0,0.0,61,0.00,,CLR,0.00,VWS V14.01,2013-04-04 00:00:00,
2013-04-03 17:05:00,65.4,51.6,30.00,South,186,2.0,0.0,61,0.00,,CLR,0.00,VWS V14.01,2013-04-04 00:05:00,
2013-04-03 17:10:00,65.2,51.9,30.00,South,178,2.0,0.0,62,0.00,,CLR,0.00,VWS V14.01,2013-04-04 00:10:00,
2013-04-03 17:15:00,65.3,51.5,30.00,ESE,121,0.0,0.0,61,0.00,,CLR,0.00,VWS V14.01,2013-04-04 00:15:00,
2013-04-03 17:20:00,65.7,51.9,29.99,ESE,121,0.0,0.0,61,0.00,,CLR,0.00,VWS V14.01,2013-04-04 00:20:00,
2013-04-03 17:25:00,66.0,48.9,29.99,West,266,1.0,0.0,54,0.00,,CLR,0.00,VWS V14.01,2013-04-04 00:25:00,
2013-04-03 17:30:00,66.1,48.5,29.99,NW,319,0.0,0.0,53,0.00,,CLR,0.00,VWS V14.01,2013-04-04 00:30:00,
2013-04-03 17:35:00,66.2,48.6,29.99,SSW,192,0.0,0.0,53,0.00,,CLR,0.00,VWS V14.01,2013-04-04 00:35:00,
2013-04-03 17:40:00,66.4,48.8,29.99,SSW,192,0.0,0.0,53,0.00,,CLR,0.00,VWS V14.01,2013-04-04 00:40:00,
2013-04-03 17:45:00,66.9,49.2,29.99,South,183,0.0,0.0,53,0.00,,CLR,0.00,VWS V14.01,2013-04-04 00:45:00,
2013-04-03 17:50:00,67.3,49.1,29.98,South,183,0.0,0.0,52,0.00,,CLR,0.00,VWS V14.01,2013-04-04 00:50:00,
2013-04-03 17:55:00,67.0,49.8,29.98,WSW,250,0.0,0.0,54,0.00,,CLR,0.00,VWS V14.01,2013-04-04 00:55:00,
2013-04-03 18:00:00,66.4,50.2,29.98,WSW,242,0.0,0.0,56,0.00,,CLR,0.00,VWS V14.01,2013-04-04 01:00:00,
2013-04-03 18:05:00,66.1,50.9,29.98,WSW,242,0.0,0.0,58,0.00,,CLR,0.00,VWS V14.01,2013-04-04 01:05:00,
2013-04-03 18:10:00,65.8,50.2,29.97,WSW,252,0.0,0.0,57,0.00,,CLR,0.00,VWS V14.01,2013-04-04 01:10:00,
2013-04-03 18:15:00,65.6,50.9,29.97,SSW,211,0.0,0.0,59,0.00,,CLR,0.00,VWS V14.01,2013-04-04 01:15:00,
2013-04-03 18:20:00,65.5,50.8,29.96,SSW,211,0.0,0.0,59,0.00,,CLR,0.00,VWS V14.01,2013-04-04 01:20:00,
2013-04-03 18:25:00,65.4,51.2,29.97,SSW,211,0.0,0.0,60,0.00,,SCT120,0.00,VWS V14.01,2013-04-04 01:25:00,
2013-04-03 18:30:00,65.2,51.4,29.96,SSW,211,0.0,0.0,61,0.00,,SCT120,0.00,VWS V14.01,2013-04-04 01:30:00,
2013-04-03 18:35:00,65.0,51.2,29.96,SSW,211,0.0,0.0,61,0.00,,SCT120,0.00,VWS V14.01,2013-04-04 01:35:00,
2013-04-03 18:40:00,64.8,51.0,29.96,SSW,211,0.0,0.0,61,0.00,,SCT120,0.00,VWS V14.01,2013-04-04 01:40:00,
2013-04-03 18:45:00,64.5,50.8,29.96,SSW,211,0.0,0.0,61,0.00,,FEW120,0.00,VWS V14.01,2013-04-04 01:45:00,
2013-04-03 18:50:00,64.3,50.1,29.96,SSW,211,0.0,0.0,60,0.00,,FEW120,0.00,VWS V14.01,2013-04-04 01:50:00,
2013-04-03 18:55:00,64.2,50.5,29.96,SSW,211,0.0,0.0,61,0.00,,FEW120,0.00,VWS V14.01,2013-04-04 01:55:00,
2013-04-03 19:00:00,63.8,50.5,29.96,SSW,211,0.0,0.0,62,0.00,,FEW120,0.00,VWS V14.01,2013-04-04 02:00:00,
2013-04-03 19:05:00,63.5,51.1,29.96,SSW,211,0.0,0.0,64,0.00,,SCT120,0.00,VWS V14.01,2013-04-04 02:05:00,
2013-04-03 19:10:00,63.2,51.2,29.95,SSW,211,0.0,0.0,65,0.00,,SCT120,0.00,VWS V14.01,2013-04-04 02:10:00,
2013-04-03 19:15:00,62.8,50.9,29.95,SSW,211,0.0,0.0,65,0.00,,SCT120,0.00,VWS V14.01,2013-04-04 02:15:00,
2013-04-03 19:20:00,62.6,51.1,29.95,SSW,211,0.0,0.0,66,0.00,,SCT120,0.00,VWS V14.01,2013-04-04 02:20:00,
2013-04-03 19:25:00,62.4,51.7,29.95,SSW,211,0.0,0.0,68,0.00,,OVC120,0.00,VWS V14.01,2013-04-04 02:25:00,
2013-04-03 19:30:00,62.1,51.8,29.95,SSW,211,0.0,0.0,69,0.00,,OVC120,0.00,VWS V14.01,2013-04-04 02:30:00,
2013-04-03 19:35:00,61.6,52.1,29.95,SSW,211,0.0,0.0,71,0.00,,OVC120,0.00,VWS V14.01,2013-04-04 02:35:00,
2013-04-03 19:40:00,61.6,52.1,29.95,SSW,210,0.0,0.0,71,0.00,,OVC120,0.00,VWS V14.01,2013-04-04 02:40:00,
2013-04-03 19:45:00,61.3,52.2,29.95,SSW,210,0.0,0.0,72,0.00,,BKN110,0.00,VWS V14.01,2013-04-04 02:45:00,
2013-04-03 19:50:00,60.9,52.2,29.95,SSW,210,0.0,0.0,73,0.00,,BKN110,0.00,VWS V14.01,2013-04-04 02:50:00,
2013-04-03 19:55:00,60.5,52.5,29.95,SSW,211,1.0,0.0,75,0.00,,BKN110,0.00,VWS V14.01,2013-04-04 02:55:00,
2013-04-03 20:00:00,60.1,52.5,29.95,SSW,211,0.0,0.0,76,0.00,,BKN110,0.00,VWS V14.01,2013-04-04 03:00:00,
2013-04-03 20:05:00,59.9,52.3,29.95,SSW,210,0.0,0.0,76,0.00,,SCT110,0.00,VWS V14.01,2013-04-04 03:05:00,
2013-04-03 20:10:00,59.7,52.5,29.94,SSW,210,0.0,0.0,77,0.00,,SCT110,0.00,VWS V14.01,2013-04-04 03:10:00,
2013-04-03 20:15:00,59.5,52.3,29.94,SSW,210,0.0,0.0,77,0.00,,SCT110,0.00,VWS V14.01,2013-04-04 03:15:00,
2013-04-03 20:20:00,59.3,52.5,29.94,SSW,211,0.0,0.0,78,0.00,,SCT110,0.00,VWS V14.01,2013-04-04 03:20:00,
2013-04-03 20:25:00,59.2,52.3,29.94,SSW,211,0.0,0.0,78,0.00,,OVC110,0.00,VWS V14.01,2013-04-04 03:25:00,
2013-04-03 20:30:00,59.1,52.6,29.94,SSW,210,0.0,0.0,79,0.00,,OVC110,0.00,VWS V14.01,2013-04-04 03:30:00,
2013-04-03 20:35:00,58.8,52.7,29.94,SSW,210,0.0,0.0,80,0.00,,OVC110,0.00,VWS V14.01,2013-04-04 03:35:00,
2013-04-03 20:40:00,58.6,52.5,29.94,SSW,210,0.0,0.0,80,0.00,,OVC110,0.00,VWS V14.01,2013-04-04 03:40:00,
2013-04-03 20:45:00,58.5,52.4,29.94,SSW,210,0.0,0.0,80,0.00,,OVC110,0.00,VWS V14.01,2013-04-04 03:45:00,
2013-04-03 20:50:00,58.4,52.3,29.94,SSW,210,0.0,0.0,80,0.00,,OVC110,0.00,VWS V14.01,2013-04-04 03:50:00,
2013-04-03 20:55:00,58.4,52.3,29.94,SSW,210,1.0,0.0,80,0.00,,OVC110,0.00,VWS V14.01,2013-04-04 03:55:00,
2013-04-03 21:00:00,58.5,52.0,29.94,SSW,210,1.0,0.0,79,0.00,,OVC110,0.00,VWS V14.01,2013-04-04 04:00:00,
2013-04-03 21:05:00,58.6,52.1,29.94,SSW,210,0.0,0.0,79,0.00,,OVC110,0.00,VWS V14.01,2013-04-04 04:05:00,
2013-04-03 21:10:00,58.8,52.3,29.94,SSW,210,1.0,0.0,79,0.00,,OVC110,0.00,VWS V14.01,2013-04-04 04:10:00,
2013-04-03 21:15:00,59.1,52.3,29.94,SSW,210,0.0,0.0,78,0.00,,OVC110,0.00,VWS V14.01,2013-04-04 04:15:00,
2013-04-03 21:20:00,59.3,52.5,29.94,SSW,210,0.0,0.0,78,0.00,,OVC110,0.00,VWS V14.01,2013-04-04 04:20:00,
2013-04-03 21:25:00,59.3,52.5,29.94,SSW,210,0.0,0.0,78,0.00,,OVC110,0.00,VWS V14.01,2013-04-04 04:25:00,
2013-04-03 21:30:00,59.4,52.9,29.94,SSW,210,0.0,0.0,79,0.00,,OVC110,0.00,VWS V14.01,2013-04-04 04:30:00,
2013-04-03 21:35:00,59.3,52.8,29.94,SSW,210,0.0,0.0,79,0.00,,OVC110,0.00,VWS V14.01,2013-04-04 04:35:00,
2013-04-03 21:40:00,59.2,53.0,29.94,SSW,210,0.0,0.0,80,0.00,,OVC110,0.00,VWS V14.01,2013-04-04 04:40:00,
2013-04-03 21:45:00,59.2,53.0,29.93,WNW,294,0.0,0.0,80,0.00,,OVC110,0.00,VWS V14.01,2013-04-04 04:45:00,
2013-04-03 21:50:00,59.1,52.9,29.93,South,187,2.0,0.0,80,0.00,,OVC110,0.00,VWS V14.01,2013-04-04 04:50:00,
2013-04-03 21:55:00,59.1,52.9,29.93,SSW,194,0.0,0.0,80,0.00,,OVC110,0.00,VWS V14.01,2013-04-04 04:55:00,
2013-04-03 22:00:00,58.9,53.1,29.93,SSW,194,1.0,0.0,81,0.00,,OVC110,0.00,VWS V14.01,2013-04-04 05:00:00,
2013-04-03 22:05:00,58.7,52.9,29.93,SSW,194,0.0,0.0,81,0.00,,BKN120,0.00,VWS V14.01,2013-04-04 05:05:00,
2013-04-03 22:10:00,58.7,52.9,29.93,SSW,204,0.0,0.0,81,0.00,,BKN120,0.00,VWS V14.01,2013-04-04 05:10:00,
2013-04-03 22:15:00,58.6,52.8,29.93,SSW,203,0.0,0.0,81,0.00,,BKN120,0.00,VWS V14.01,2013-04-04 05:15:00,
2013-04-03 22:20:00,58.5,52.7,29.93,SSW,203,0.0,0.0,81,0.00,,BKN120,0.00,VWS V14.01,2013-04-04 05:20:00,
2013-04-03 22:25:00,58.3,52.5,29.92,SSW,203,0.0,0.0,81,0.00,,FEW120,0.00,VWS V14.01,2013-04-04 05:25:00,
2013-04-03 22:30:00,58.0,52.5,29.92,SSW,203,0.0,0.0,82,0.00,,FEW120,0.00,VWS V14.01,2013-04-04 05:30:00,
2013-04-03 22:35:00,57.8,52.7,29.92,SSW,203,0.0,0.0,83,0.00,,FEW120,0.00,VWS V14.01,2013-04-04 05:35:00,
2013-04-03 22:40:00,57.3,52.5,29.92,SSW,203,0.0,0.0,84,0.00,,FEW120,0.00,VWS V14.01,2013-04-04 05:40:00,
2013-04-03 22:45:00,56.8,52.0,29.92,SSW,203,0.0,0.0,84,0.00,,FEW120,0.00,VWS V14.01,2013-04-04 05:45:00,
2013-04-03 22:50:00,56.5,52.0,29.92,SSW,204,0.0,0.0,85,0.00,,FEW120,0.00,VWS V14.01,2013-04-04 05:50:00,
2013-04-03 22:55:00,56.2,52.1,29.92,SSW,204,0.0,0.0,86,0.00,,FEW120,0.00,VWS V14.01,2013-04-04 05:55:00,
2013-04-03 23:00:00,56.0,51.9,29.92,SSW,203,0.0,0.0,86,0.00,,FEW120,0.00,VWS V14.01,2013-04-04 06:00:00,
2013-04-03 23:05:00,55.9,52.1,29.92,SSW,203,0.0,0.0,87,0.00,,FEW120,0.00,VWS V14.01,2013-04-04 06:05:00,
2013-04-03 23:10:00,55.6,51.8,29.92,SSW,204,0.0,0.0,87,0.00,,FEW120,0.00,VWS V14.01,2013-04-04 06:10:00,
2013-04-03 23:15:00,55.3,51.5,29.91,SSW,204,0.0,0.0,87,0.00,,FEW120,0.00,VWS V14.01,2013-04-04 06:15:00,
2013-04-03 23:20:00,55.2,51.7,29.91,SSW,204,0.0,0.0,88,0.00,,FEW120,0.00,VWS V14.01,2013-04-04 06:20:00,
2013-04-03 23:25:00,55.1,51.6,29.91,SSW,204,0.0,0.0,88,0.00,,SCT120,0.00,VWS V14.01,2013-04-04 06:25:00,
2013-04-03 23:30:00,54.9,51.4,29.91,SSW,203,0.0,0.0,88,0.00,,SCT120,0.00,VWS V14.01,2013-04-04 06:30:00,
2013-04-03 23:35:00,54.9,51.4,29.91,SSW,203,0.0,0.0,88,0.00,,SCT120,0.00,VWS V14.01,2013-04-04 06:35:00,
2013-04-03 23:40:00,54.8,51.6,29.91,SSW,203,0.0,0.0,89,0.00,,SCT120,0.00,VWS V14.01,2013-04-04 06:40:00,
2013-04-03 23:45:00,54.7,51.5,29.90,SSW,203,0.0,0.0,89,0.00,,BKN120,0.00,VWS V14.01,2013-04-04 06:45:00,
2013-04-03 23:50:00,54.7,51.5,29.91,SSW,203,0.0,0.0,89,0.00,,BKN120,0.00,VWS V14.01,2013-04-04 06:50:00,
2013-04-03 23:55:00,54.7,51.5,29.90,SSW,203,0.0,0.0,89,0.00,,BKN120,0.00,VWS V14.01,2013-04-04 06:55:00,